Location: Blériot-Plage
(50.9575°N, 1.8224°E)
Time: 16:11:19
(UTC+00:00)

Cosmos 2221 - Pass Details

Date: 15 May 2026
Orbit: 569 x 587 km, 82.5° (Epoch: 10 June)

Event Time Altitude Azimuth Distance (km) Brightness Sun altitude
Exits shadow 23:39:45 35° 236° (SW) 947 3.2 -20.0°
Maximum altitude 23:41:03 48° 285° (WNW) 764 3.1 -20.0°
Drops below altitude 10° 23:45:09 10° 1° (N) 1,910 6.3 -20.0°
Sets 23:47:25 0° 7° (N) 2,817 7.5 -20.0°
